When you browse on this site, cookies collect data to enhance your experience and personalize the content and advertising you see.
Visit our Privacy Policy to learn more. By continuing to use the site, you agree to this use of cookies and data.
  • en France
  • Liste des pays
  • À 7 jours
  • Température de l'eau
  • Carte météo
  • Widgets météo
  • user-avatar
    Se connecter

    Météo par heure à Touying

    Ce jour, 15 Septembre, Dimanche

    Heure Température Précipitation Vent Pression Humidité
    00:00 +21°C° 0 mm 1 m/s 760 mmHg 59%
    01:00 +21°C° 0 mm 1 m/s 759 mmHg 65%
    02:00 +20°C° 0 mm 1 m/s 759 mmHg 70%
    03:00 +20°C° 0 mm 1 m/s 759 mmHg 71%
    04:00 +19°C° 0 mm 1 m/s 759 mmHg 73%
    05:00 +19°C° 0 mm 1 m/s 759 mmHg 75%
    06:00 +20°C° 0 mm 1 m/s 759 mmHg 72%
    07:00 +21°C° 0 mm 1 m/s 759 mmHg 68%
    08:00 +23°C° 0 mm 1 m/s 759 mmHg 67%
    09:00 +25°C° 0 mm 1 m/s 759 mmHg 60%
    10:00 +26°C° 0 mm 1 m/s 758 mmHg 53%
    11:00 +28°C° 0 mm 2 m/s 758 mmHg 46%
    12:00 +29°C° 0 mm 2 m/s 757 mmHg 42%
    13:00 +30°C° 0 mm 2 m/s 757 mmHg 38%
    14:00 +31°C° 0 mm 3 m/s 756 mmHg 34%
    15:00 +31°C° 0 mm 2 m/s 756 mmHg 37%
    16:00 +30°C° 0 mm 2 m/s 756 mmHg 39%
    17:00 +30°C° 0 mm 2 m/s 756 mmHg 42%
    18:00 +28°C° 0 mm 2 m/s 756 mmHg 45%
    19:00 +26°C° 0 mm 2 m/s 757 mmHg 47%
    20:00 +24°C° 0 mm 1 m/s 757 mmHg 50%
    21:00 +23°C° 0 mm 1 m/s 758 mmHg 52%
    22:00 +23°C° 0 mm 1 m/s 758 mmHg 54%
    23:00 +22°C° 0 mm 1 m/s 759 mmHg 56%

    Demain, 16 Septembre, Lundi

    Heure Température Précipitation Vent Pression Humidité
    00:00 +20°C° 0 mm 2 m/s 759 mmHg 57%
    01:00 +20°C° 0 mm 2 m/s 760 mmHg 57%
    02:00 +19°C° 0 mm 2 m/s 760 mmHg 58%
    03:00 +18°C° 0 mm 2 m/s 760 mmHg 55%
    04:00 +18°C° 0 mm 2 m/s 761 mmHg 51%
    05:00 +18°C° 0 mm 2 m/s 761 mmHg 48%
    06:00 +19°C° 0 mm 2 m/s 762 mmHg 46%
    07:00 +19°C° 0 mm 2 m/s 762 mmHg 45%
    08:00 +20°C° 0 mm 2 m/s 763 mmHg 43%
    09:00 +23°C° 0 mm 2 m/s 763 mmHg 39%
    10:00 +24°C° 0 mm 2 m/s 762 mmHg 35%
    11:00 +25°C° 0 mm 2 m/s 762 mmHg 31%
    12:00 +26°C° 0 mm 2 m/s 762 mmHg 30%
    13:00 +27°C° 0 mm 2 m/s 761 mmHg 28%
    14:00 +28°C° 0 mm 2 m/s 761 mmHg 27%
    15:00 +28°C° 0 mm 2 m/s 760 mmHg 30%
    16:00 +27°C° 0 mm 2 m/s 760 mmHg 32%
    17:00 +27°C° 0 mm 2 m/s 760 mmHg 34%
    18:00 +25°C° 0 mm 2 m/s 760 mmHg 38%
    19:00 +23°C° 0 mm 2 m/s 760 mmHg 42%
    20:00 +19°C° 0 mm 2 m/s 761 mmHg 46%
    21:00 +19°C° 0 mm 2 m/s 761 mmHg 48%
    22:00 +19°C° 0 mm 1 m/s 761 mmHg 51%
    23:00 +19°C° 0 mm 1 m/s 761 mmHg 53%

    Après-demain, 17 Septembre, Mardi

    Heure Température Précipitation Vent Pression Humidité
    00:00 +19°C° 0 mm 1 m/s 761 mmHg 53%
    01:00 +18°C° 0 mm 1 m/s 761 mmHg 54%
    02:00 +18°C° 0 mm 1 m/s 761 mmHg 55%
    03:00 +18°C° 0 mm 1 m/s 761 mmHg 56%
    04:00 +16°C° 0 mm 0 m/s 761 mmHg 58%
    05:00 +16°C° 0 mm 0 m/s 761 mmHg 60%
    06:00 +19°C° 0 mm 1 m/s 761 mmHg 58%
    07:00 +20°C° 0 mm 1 m/s 761 mmHg 57%
    08:00 +21°C° 0 mm 1 m/s 761 mmHg 55%
    09:00 +23°C° 0 mm 2 m/s 761 mmHg 52%
    10:00 +25°C° 0 mm 3 m/s 761 mmHg 50%
    11:00 +27°C° 0 mm 3 m/s 760 mmHg 47%
    12:00 +28°C° 0 mm 3 m/s 760 mmHg 43%
    13:00 +30°C° 0 mm 3 m/s 759 mmHg 38%
    14:00 +31°C° 0 mm 3 m/s 759 mmHg 34%
    15:00 +31°C° 0 mm 3 m/s 759 mmHg 35%
    16:00 +31°C° 0 mm 2 m/s 759 mmHg 35%
    17:00 +31°C° 0 mm 1 m/s 759 mmHg 36%
    18:00 +28°C° 0 mm 2 m/s 760 mmHg 36%
    19:00 +26°C° 0 mm 3 m/s 761 mmHg 37%
    20:00 +23°C° 0 mm 4 m/s 762 mmHg 37%
    21:00 +22°C° 0 mm 3 m/s 762 mmHg 35%
    22:00 +21°C° 0 mm 3 m/s 763 mmHg 33%
    23:00 +20°C° 0 mm 3 m/s 764 mmHg 32%

    18 Septembre, Mercredi

    Heure Température Précipitation Vent Pression Humidité
    00:00 +19°C° 0 mm 3 m/s 764 mmHg 34%
    01:00 +18°C° 0 mm 2 m/s 765 mmHg 36%
    02:00 +16°C° 0 mm 1 m/s 765 mmHg 38%
    03:00 +15°C° 0 mm 1 m/s 766 mmHg 38%
    04:00 +15°C° 0 mm 1 m/s 766 mmHg 39%
    05:00 +14°C° 0 mm 1 m/s 767 mmHg 39%
    06:00 +15°C° 0 mm 1 m/s 767 mmHg 36%
    07:00 +18°C° 0 mm 1 m/s 768 mmHg 33%
    08:00 +19°C° 0 mm 1 m/s 768 mmHg 31%
    09:00 +21°C° 0 mm 1 m/s 768 mmHg 27%
    10:00 +23°C° 0 mm 2 m/s 767 mmHg 23%
    11:00 +25°C° 0 mm 2 m/s 767 mmHg 19%
    12:00 +25°C° 0 mm 2 m/s 766 mmHg 19%
    13:00 +26°C° 0 mm 3 m/s 766 mmHg 19%
    14:00 +27°C° 0 mm 3 m/s 765 mmHg 18%
    15:00 +27°C° 0 mm 2 m/s 764 mmHg 21%
    16:00 +27°C° 0 mm 2 m/s 764 mmHg 24%
    17:00 +26°C° 0 mm 1 m/s 764 mmHg 27%
    18:00 +24°C° 0 mm 1 m/s 764 mmHg 29%
    19:00 +22°C° 0 mm 1 m/s 764 mmHg 31%
    20:00 +20°C° 0 mm 1 m/s 764 mmHg 32%
    21:00 +19°C° 0 mm 1 m/s 764 mmHg 35%
    22:00 +19°C° 0 mm 1 m/s 764 mmHg 38%
    23:00 +18°C° 0 mm 1 m/s 764 mmHg 41%

    19 Septembre, Jeudi

    Heure Température Précipitation Vent Pression Humidité
    00:00 +18°C° 0 mm 1 m/s 764 mmHg 44%
    01:00 +16°C° 0 mm 1 m/s 764 mmHg 47%
    02:00 +15°C° 0 mm 0 m/s 764 mmHg 49%
    03:00 +15°C° 0 mm 0 m/s 764 mmHg 49%
    04:00 +15°C° 0 mm 0 m/s 764 mmHg 49%
    05:00 +15°C° 0 mm 0 m/s 764 mmHg 49%
    06:00 +16°C° 0 mm 0 m/s 764 mmHg 48%
    07:00 +19°C° 0 mm 1 m/s 764 mmHg 47%
    08:00 +20°C° 0 mm 1 m/s 764 mmHg 46%
    09:00 +22°C° 0 mm 1 m/s 764 mmHg 44%
    10:00 +23°C° 0 mm 1 m/s 764 mmHg 42%
    11:00 +24°C° 0 mm 2 m/s 764 mmHg 40%
    12:00 +25°C° 0 mm 2 m/s 763 mmHg 39%
    13:00 +25°C° 0 mm 2 m/s 763 mmHg 38%
    14:00 +26°C° 0 mm 2 m/s 762 mmHg 37%
    15:00 +26°C° 0 mm 2 m/s 762 mmHg 39%
    16:00 +25°C° 0 mm 2 m/s 762 mmHg 41%
    17:00 +25°C° 0 mm 2 m/s 762 mmHg 43%
    18:00 +23°C° 0 mm 2 m/s 762 mmHg 48%
    19:00 +21°C° 0 mm 2 m/s 762 mmHg 52%
    20:00 +20°C° 0 mm 2 m/s 763 mmHg 57%
    21:00 +19°C° 0 mm 2 m/s 762 mmHg 59%
    22:00 +19°C° 0 mm 2 m/s 762 mmHg 62%
    23:00 +19°C° 0 mm 2 m/s 762 mmHg 64%

    20 Septembre, Vendredi

    Heure Température Précipitation Vent Pression Humidité
    00:00 +18°C° 0 mm 2 m/s 762 mmHg 66%
    01:00 +18°C° 0 mm 2 m/s 762 mmHg 69%
    02:00 +18°C° 0 mm 2 m/s 761 mmHg 71%
    03:00 +17°C° 0 mm 2 m/s 761 mmHg 71%
    04:00 +17°C° 0 mm 2 m/s 761 mmHg 72%
    05:00 +18°C° 0 mm 1 m/s 761 mmHg 73%
    06:00 +18°C° 0 mm 1 m/s 761 mmHg 70%
    07:00 +19°C° 0 mm 1 m/s 761 mmHg 66%
    08:00 +20°C° 0 mm 1 m/s 761 mmHg 63%
    09:00 +20°C° 0.1 mm 2 m/s 761 mmHg 64%
    10:00 +20°C° 0.1 mm 2 m/s 761 mmHg 64%
    11:00 +21°C° 0.1 mm 3 m/s 761 mmHg 64%
    12:00 +20°C° 0.1 mm 3 m/s 761 mmHg 65%
    13:00 +20°C° 0.1 mm 3 m/s 760 mmHg 67%
    14:00 +19°C° 0.1 mm 2 m/s 760 mmHg 68%
    15:00 +20°C° 0 mm 2 m/s 760 mmHg 64%
    16:00 +21°C° 0 mm 2 m/s 760 mmHg 60%
    17:00 +23°C° 0 mm 1 m/s 760 mmHg 55%
    18:00 +21°C° 0 mm 1 m/s 760 mmHg 62%
    19:00 +19°C° 0 mm 1 m/s 760 mmHg 68%
    20:00 +16°C° 0 mm 0 m/s 761 mmHg 74%
    21:00 +15°C° 0 mm 0 m/s 761 mmHg 75%
    22:00 +15°C° 0 mm 0 m/s 761 mmHg 76%
    23:00 +15°C° 0 mm 0 m/s 761 mmHg 77%
    Voir plus